Location: Burzi?i
(45.0869°N, 16.0577°E)
Time: 11:57:15
(UTC+00:00)

ARGOS - Pass Details

Date: 29 October 2020
Orbit: 820 x 835 km, 98.4° (Epoch: 27 November)

Event Time Altitude Azimuth Distance (km) Brightness Sun altitude
Exits shadow 18:17:20 52° 176° (S) 1,026 3.5 -26.9°
Maximum altitude 18:18:42 82° 256° (WSW) 848 3.1 -27.2°
Drops below altitude 10° 18:24:10 10° 345° (NNW) 2,457 5.9 -28.1°
Sets 18:26:33 0° 346° (NNW) 3,395 6.6 -28.5°
